Regional Weather Roundup
Issued by NWS Goodland, KS

Home | Current Version | Previous Version | Graphics & Text | Print | Product List | Glossary On
Versions: 1 2 3 4 5 6 7 8 9 10 11 12 13 14 15 16 17 18 19 20 21 22 23 24 25 26 27 28 29 30 31 32 33 34 35 36 37 38 39 40 41 42 43 44 45 46 47 48 49 50
000
ASUS43 KGLD 212108
RWRGLD

GOODLAND FORECAST AREA HOURLY WEATHER ROUNDUP
NATIONAL WEATHER SERVICE GOODLAND KS
200 PM MST TUE FEB 21 2017

...OFFICIAL OBSERVATIONS...

CITY           SKY/WX    TMP DP  RH WIND       PRES   REMARKS
GOODLAND KS    SUNNY     76  19  11 NW13      29.94F
HILL CITY KS   SUNNY     79  25  13 W8        29.90F
IMPERIAL NEB   SUNNY     76  21  12 W13G23    29.88F
MCCOOK NEB     SUNNY     79  26  14 W14G23    29.87F
AKRON CO       SUNNY     73  14  10 W25G35    29.95F
BURLINGTON CO  SUNNY     76  19  11 W10       29.98F
LIMON CO       SUNNY     74   1   6 NW16G23   30.01F
$$

...UNOFFICIAL OBSERVATIONS...

CITY           SKY/WX    TMP DP  RH WIND       PRES   REMARKS
LENORA KS        N/A     77  32  19 NW10        N/A
NORTON KS      SUNNY     79  16   9 W12G21    29.88F
SHARON SPRINGS   N/A     78  27  15 CALM        N/A
TRENTON NEB      N/A     78  32  18 W9          N/A
KIT CARSON CO    N/A     75  24  15 MISG        N/A
YUMA CO        FAIR      72  21  15 W17G23    29.95F
$$




USA.gov is the U.S. government's official web portal to all federal, state and local government web resources and services.